Location: Duac?
(36.9744°N, 30.6500°E)
Time: 15:38:29
(UTC+00:00)

CSL-04 Debris - Pass Details

Date: 05 August 2024
Orbit: 822 x 842 km, 98.8° (Epoch: 11 September)

Event Time Altitude Azimuth Distance (km) Brightness Sun altitude
Exits shadow 17:43:49 - 159° (SSE) 3,148 6.7 -8.7°
Reaches altitude 10° 17:45:39 10° 158° (SSE) 2,419 6.1 -9.1°
Maximum altitude 17:50:59 73° 75° (ENE) 867 4.2 -10.0°
Drops below altitude 10° 17:56:23 10° 351° (N) 2,447 7.2 -10.9°
Sets 17:58:46 0° 350° (N) 3,388 8.0 -11.3°
